EUTELSAT 3B

Last updated on Wed Sep 09 2026 00:03:00 GMT+0000 (Coordinated Universal Time)

1 39773U 14030A 26251.30311921 -.00000001 00000+0 00000+0 0 9993 2 39773 0.0646 348.5562 0004080 181.4703 289.5535 1.00271195 44906
UTC large
Height (km)
Speed (km/s)
/
Latitude / Longitude
Inclination (degrees)
Orbital Period (minutes)
Azimuth
Elevation
Range (km)
Doppler Factor

Next 0 passes for location: London (51.5072 / 0.1276)

No passes found over London.
EUTELSAT 3B